TimeEDT,TemperatureF,Dew PointF,Humidity,Sea Level PressureIn,VisibilityMPH,Wind Direction,Wind SpeedMPH,Gust SpeedMPH,PrecipitationIn,Events,Conditions,WindDirDegrees,DateUTC
12:53 AM,34.0,25.0,70,30.00,10.0,North,11.5,-,N/A,,Overcast,350,2013-03-26 04:53:00
1:53 AM,34.0,25.0,70,30.01,10.0,NNW,10.4,-,N/A,,Overcast,340,2013-03-26 05:53:00
2:53 AM,33.1,25.0,72,30.02,10.0,NNW,9.2,-,N/A,,Overcast,330,2013-03-26 06:53:00
3:53 AM,32.0,25.0,75,30.02,10.0,NNW,8.1,-,N/A,,Overcast,330,2013-03-26 07:53:00
4:53 AM,32.0,25.0,75,30.03,10.0,NW,6.9,-,N/A,,Overcast,320,2013-03-26 08:53:00
5:53 AM,32.0,26.1,79,30.04,10.0,NW,6.9,-,N/A,,Overcast,310,2013-03-26 09:53:00
6:53 AM,32.0,26.6,80,30.03,10.0,NW,6.9,-,N/A,,Overcast,310,2013-03-26 10:53:00
7:53 AM,30.9,26.1,82,30.08,10.0,NW,9.2,-,N/A,,Mostly Cloudy,310,2013-03-26 11:53:00
8:53 AM,32.0,27.0,82,30.10,10.0,NNW,9.2,-,N/A,,Overcast,330,2013-03-26 12:53:00
9:53 AM,34.0,27.0,75,30.12,10.0,NNW,10.4,-,N/A,,Overcast,330,2013-03-26 13:53:00
10:53 AM,39.0,28.9,67,30.12,10.0,NNW,11.5,-,N/A,,Mostly Cloudy,340,2013-03-26 14:53:00
11:53 AM,39.9,27.0,60,30.12,10.0,NNW,13.8,-,N/A,,Mostly Cloudy,330,2013-03-26 15:53:00
11:55 AM,39.2,26.6,61,30.10,10.0,NW,11.5,-,N/A,,Overcast,320,2013-03-26 15:55:00
12:53 PM,41.0,28.0,60,30.12,10.0,NW,11.5,-,N/A,,Overcast,310,2013-03-26 16:53:00
1:53 PM,39.9,27.0,60,30.12,10.0,NW,13.8,-,N/A,,Overcast,310,2013-03-26 17:53:00
2:53 PM,39.9,27.0,60,30.12,10.0,West,12.7,20.7,0.00,,Overcast,280,2013-03-26 18:53:00
3:53 PM,39.9,28.0,63,30.12,10.0,WNW,15.0,-,N/A,,Overcast,300,2013-03-26 19:53:00
4:51 PM,39.2,30.2,70,30.10,10.0,WNW,13.8,19.6,0.00,,Overcast,290,2013-03-26 20:51:00
4:53 PM,39.0,30.0,70,30.13,10.0,West,13.8,19.6,0.00,,Overcast,280,2013-03-26 20:53:00
5:53 PM,36.0,30.0,79,30.15,9.0,West,13.8,19.6,0.00,Snow,Light Snow,280,2013-03-26 21:53:00
6:53 PM,35.1,30.0,82,30.16,6.0,NW,15.0,20.7,0.00,Snow,Light Snow,310,2013-03-26 22:53:00
7:53 PM,35.1,30.0,82,30.17,5.0,WNW,11.5,-,0.00,Snow,Light Snow,290,2013-03-26 23:53:00
8:53 PM,35.1,28.9,78,30.18,9.0,WNW,11.5,-,0.00,Snow,Light Snow,290,2013-03-27 00:53:00
9:53 PM,35.1,28.9,78,30.19,9.0,WNW,13.8,-,0.00,Snow,Light Snow,300,2013-03-27 01:53:00
10:53 PM,35.1,28.9,78,30.20,10.0,WNW,12.7,-,0.00,,Overcast,300,2013-03-27 02:53:00
11:17 PM,33.8,28.4,81,30.17,10.0,WNW,10.4,-,N/A,,Overcast,300,2013-03-27 03:17:00
11:53 PM,34.0,28.9,82,30.20,10.0,WNW,8.1,-,N/A,,Overcast,300,2013-03-27 03:53:00